This demonstration page uses our WeatherBlox Daily Observations layout. Learn more.

Left ArrowRight Arrow

Hourly Observations for March 29, 2022

Temp ( °F °C ) Dew Point ( °F °C ) Humidity (%) Winds ( mph kmh ) Pressure ( in mb ) Visibility ( mi km ) Precip ( " mm )
12:53 am 00:53 Clear 73 22.8 44 6.7 35 35 SE 13 20 29.63 1003 10 16 0.00 0.00
1:53 am 01:53 Clear 70 21.1 44 6.7 39 39 SE 10 17 29.62 1003 10 16 0.00 0.00
2:53 am 02:53 Clear 67 19.4 42 5.6 41 41 SE 9 15 29.62 1003 10 16 0.00 0.00
3:53 am 03:53 Clear 68 20 42 5.6 39 39 SSE 10 17 29.61 1003 10 16 0.00 0.00
4:53 am 04:53 Clear 65 18.3 41 5 42 42 ESE 5 7 29.59 1002 10 16 0.00 0.00
5:53 am 05:53 Mostly Clear 65 18.3 41 5 42 42 Calm 29.59 1002 10 16 0.00 0.00
6:53 am 06:53 Clear 63 17.2 41 5 45 45 SE 9 15 29.58 1002 10 16 0.00 0.00
7:53 am 07:53 Sunny 59 15 39 3.9 48 48 S 3 6 29.60 1003 10 16 0.00 0.00
8:53 am 08:53 Sunny 65 18.3 40 4.4 40 40 ESE 3 6 29.59 1002 10 16 0.00 0.00
9:53 am 09:53 Sunny 68 20 36 2.2 31 31 Calm 29.59 1002 10 16 0.00 0.00
10:53 am 10:53 Sunny 75 23.9 23 -5 14 14 S 5 7 29.57 1001 10 16 0.00 0.00
11:53 am 11:53 Sunny 83 28.3 14 -10 7 7 S 16 26 29.54 1000 10 16 0.00 0.00
12:53 pm 12:53 Sunny 84 28.9 11 -11.7 6 6 S 14 22 29.50 999 10 16 0.00 0.00
1:53 pm 13:53 Sunny 87 30.6 10 -12.2 5 5 WSW 17 28 29.44 997 10 16 0.00 0.00
2:03 pm 14:03 Sunny 88 31.1 10 -12.2 5 5 WSW 23 37 29.37 994 10 16 0.00 0.00
2:53 pm 14:53 Sunny 90 32.2 8 -13.3 4 4 W 33 54 29.40 996 10 16 0.00 0.00
3:53 pm 15:53 Sunny 90 32.2 6 -14.4 4 4 W 31 50 29.35 994 10 16 0.00 0.00
4:53 pm 16:53 Sunny 90 32.2 5 -15 4 4 WSW 25 41 29.33 993 10 16 0.00 0.00
5:53 pm 17:53 Hazy 84 28.9 16 -8.9 8 8 WNW 35 56 29.33 993 6 10 0.00 0.00
6:46 pm 18:46 Mostly Cloudy with Haze 81 27.2 20 -6.7 10 10 WNW 33 54 29.30 992 5 8 0.00 0.00
6:53 pm 18:53 Mostly Cloudy with Haze 80 26.7 20 -6.7 10 10 WNW 30 48 29.36 994 4 6 0.00 0.00
7:01 pm 19:01 Cloudy with Haze 80 26.7 21 -6.1 11 11 WNW 29 46 29.32 993 5 8 0.00 0.00
7:53 pm 19:53 Cloudy 76 24.4 26 -3.3 16 16 WNW 25 41 29.40 996 8 13 0.00 0.00
8:53 pm 20:53 Cloudy 73 22.8 25 -3.9 17 17 WNW 29 46 29.42 996 10 16 0.00 0.00
9:53 pm 21:53 Mostly Clear 69 20.6 23 -5 17 17 WNW 31 50 29.49 999 9 14 0.00 0.00
10:53 pm 22:53 Clear 65 18.3 25 -3.9 22 22 WNW 18 30 29.54 1000 10 16 0.00 0.00
11:53 pm 23:53 Cloudy 64 17.8 23 -5 21 21 W 14 22 29.56 1001 10 16 0.00 0.00

Powered by AerisWeather